sat.trackr.live / text

‹ back to catalog

PLEIADES NEO 4

NORAD 49070 · 2021-073E

PAYLOAD ACTIVE UNKNOWN

§ Identity

Operator
Country
FR
Launch date
2021-08-17
Launch site
FRGUI
Launch vehicle
Mass (kg)
RCS (m²)

Purposes: earth_obs

External: N2YO · Heavens-Above · Gunter

§ Orbital elements

Epoch: 2026-09-04T03:57:21.096864Z

Period
97.19 min
Inclination
97.8943°
Eccentricity
0.0001502
Mean motion
14.81672919 rev/d
Perigee alt
623.0 km
Apogee alt
625.1 km
Semi-major
7,002.2 km
B*
1.9620e-5
RAAN
320.7919°
Arg perigee
89.0452°
Mean anomaly
271.0933°
Rev number
27,306

§ Raw data

PLEIADES NEO 41 49070U 21073E   26247.16482751  .00000102  00000+0  19620-4 0  99922 49070  97.8943 320.7919 0001502  89.0452 271.0933 14.81672919273060

JSON: /api/v1/satellites/49070 · /tle

For live sub-satellite position, see the globe view (requires WebGL).

§ Visibility from observer

Set your observer location to see the next 7 days of passes ≥ 10°. The values pass through the URL so the page stays shareable.

No JS? Fill the form by hand. The geolocation button needs JavaScript.

§ Radio — SatNOGS DB

ModeDescriptionDownlinkUplink
BPSK S-band telemetry 2.266 GHz

1 transmitter · refreshed weekly from db.satnogs.org